Location: Unspecified
(0.0000°N, 0.0000°E)
Time: 03:11:57
(UTC+00:00)

BlueWalker 3 - Pass Details

Date: 19 July 2024
Orbit: 480 x 491 km, 53.2° (Epoch: 24 July)

Event Time Altitude Azimuth Distance (km) Brightness Sun altitude
Rises 20:02:15 0° 288° (WNW) 2,521 6.8 -26.9°
Reaches altitude 10° 20:06:06 10° 248° (WSW) 1,646 5.1 -27.8°
Maximum altitude 20:06:55 11° 235° (SW) 1,611 4.8 -28.0°
Enters shadow 20:07:16 10° 230° (SW) 1,618 4.8 -28.1°
